ONEWEB-0136 (47282 NORAD) Tracking and Keplerian Element Data

This shows tracking and keplerian element data for the satellite.

Feedback or suggestion? Click here.




ElementValue
Catalog47282
NameONEWEB-0136
Epoch Orbit174
Epoch Day101.91668981
Epoch Year2021
RAAN6.7837
Inclination87.9618
Eccentricity0.0001257
Argument of Perigee81.4488
Mean Anonmoly117.4341
Mean Motion13.28434486
Decay Rate-0.00037106
L11 47282U 20100AA 21101.91668981 -.00037106 00000-0 -81762-1 0 9993
L22 47282 87.9618 6.7837 0001257 81.4488 117.4341 13.28434486 1749

Live tracking and technical data element details for ONEWEB-0136 (NORAD 47282). ONEWEB-0136 can be tracked NOW for your location showing map with azimuth and elevation plus other details from your city location.

Track the satellite on the map from your city or location and see movement details for azimuth, elevation, latitude, longitude, range, height, and movement on the map or in text.







IsCatalogInMostPopularTable: catalog: 47282, numindb: 31
Update: records affected: 1



GetName: 47282 ONEWEB-0136

Hit Count: updated at: Tue, 13 Apr 2021 04:48:48 GMT